Location: Cazavet
(43.0017°N, 1.0431°E)
Time: 21:46:05
(UTC+00:00)

Lacrosse 4 Rocket - Pass Details

Date: 18 January 2026
Orbit: 513 x 564 km, 68.0° (Epoch: 10 February)

Event Time Altitude Azimuth Distance (km) Brightness Sun altitude
Exits shadow 06:33:03 - 239° (WSW) 2,587 4.4 -9.2°
Reaches altitude 10° 06:35:22 10° 253° (WSW) 1,760 3.4 -8.8°
Maximum altitude 06:38:35 24° 309° (NW) 1,107 2.3 -8.2°
Drops below altitude 10° 06:41:49 10° 4° (N) 1,752 3.7 -7.6°
Sets 06:44:17 0° 19° (NNE) 2,638 4.8 -7.2°
